Theta_e
337 340 340 346 347 348 350 351 352 352 352 351 351 351 351 351 351 351 351 351 351 351 351 351 350 350 349 349 348 348 348 347 347 347 347 347 346 346 345 345 344 344 344 343 343 342 342 343 344 345 345 346 346 345 344 344 345 345 345 346 346 346 347 346 346 344 343 342 343 345 346 346 347 348 347 347 347 346 344 345 345 343 344 345 347
334 340 341 343 346 347 350 351 351 352 352 352 351 350 351 351 351 351 351 350 350 350 350 351 350 350 350 350 348 348 347 347 347 346 347 346 346 346 345 344 344 343 343 343 342 341 340 341 342 342 344 344 344 344 343 344 344 343 345 346 346 346 346 345 343 342 342 341 341 342 342 344 345 346 347 346 346 346 344 344 343 340 342 345 345
334 342 343 344 347 349 350 350 350 351 351 351 350 350 350 350 351 351 350 350 350 350 350 350 349 349 350 349 348 347 347 347 347 347 347 345 346 344 344 344 343 342 341 341 340 340 339 340 340 341 341 341 342 343 343 343 342 342 342 345 346 346 345 343 342 342 341 340 340 339 338 339 342 344 345 343 344 344 342 341 341 340 338 345 345
339 343 346 347 345 347 348 347 345 347 350 350 350 350 349 350 350 350 350 349 349 349 349 349 349 349 349 349 349 348 348 348 347 347 347 346 345 344 343 343 343 340 339 340 340 339 338 339 339 339 339 339 341 342 342 342 342 343 342 343 345 345 344 342 341 340 340 339 338 336 335 331 334 341 343 342 340 340 339 340 340 340 340 340 344
341 344 347 347 344 342 348 345 343 343 345 350 350 349 349 349 349 349 349 348 348 347 348 347 348 348 348 348 348 348 348 347 347 346 346 345 345 344 343 343 342 340 339 339 338 338 338 338 338 338 338 338 339 340 341 341 342 343 343 343 345 343 341 341 340 339 338 337 336 333 329 330 330 337 341 341 338 338 338 339 339 340 339 338 341
339 346 348 345 344 344 346 344 344 344 344 350 350 349 349 349 349 348 347 347 347 347 347 346 347 348 348 348 347 347 348 347 346 346 345 344 344 344 343 343 342 340 338 336 335 338 338 337 337 337 337 337 338 338 340 341 342 343 343 344 344 341 341 340 339 337 336 335 333 328 328 328 330 331 339 339 338 337 338 338 339 339 339 338 338
343 348 347 344 343 344 343 341 343 344 345 350 350 349 349 348 348 347 347 346 346 347 346 346 347 347 347 347 346 347 347 347 346 346 345 345 344 343 343 342 341 339 338 335 334 337 338 337 336 337 337 336 337 338 338 340 341 342 343 343 343 340 339 338 337 336 334 330 325 325 326 327 328 328 336 336 337 336 336 338 339 339 339 338 338
346 347 348 345 343 340 345 340 344 344 344 347 349 349 349 348 348 347 346 346 346 346 346 346 346 346 347 346 346 346 347 347 346 345 344 344 343 343 342 342 341 339 337 335 333 336 337 336 336 336 336 336 336 337 337 339 340 342 343 341 340 339 338 337 335 334 332 325 325 326 325 326 327 327 335 335 336 336 336 336 337 337 338 337 335
345 348 348 346 342 341 344 344 345 345 347 346 348 349 348 348 349 348 346 346 345 346 345 346 346 346 346 346 346 346 347 346 345 343 343 343 342 342 341 340 339 338 336 334 333 335 336 336 336 336 336 335 335 335 338 339 341 342 342 341 339 338 336 335 333 330 326 323 323 326 328 325 326 326 332 335 334 335 335 334 335 336 336 335 334
346 348 347 344 341 341 342 347 348 347 347 346 346 349 348 348 347 346 345 345 345 345 345 346 346 346 346 346 346 346 345 344 343 343 343 342 342 341 340 339 338 336 334 332 332 333 336 336 335 335 335 334 334 336 337 339 340 340 340 339 338 337 335 333 330 328 323 323 323 322 329 335 325 325 331 334 334 333 333 333 333 334 333 334 334
345 347 347 343 340 342 345 348 344 344 347 347 346 348 348 348 347 346 345 345 345 346 345 346 346 346 346 346 345 344 344 343 343 343 342 341 342 341 340 339 337 335 332 331 331 333 335 336 335 334 334 333 334 337 338 339 339 339 339 338 336 335 333 331 327 321 322 322 323 323 327 333 326 323 334 333 334 334 332 332 332 333 332 333 334
345 346 346 344 342 341 344 345 346 345 339 347 346 346 346 348 348 346 345 346 346 346 346 346 347 346 346 346 345 345 344 343 343 342 342 341 341 340 339 338 337 334 330 329 329 332 335 335 335 333 332 333 334 336 337 338 337 337 336 335 333 332 330 328 322 321 321 321 322 324 324 325 325 326 333 335 335 333 332 331 332 334 333 334 333
343 345 346 345 342 339 343 344 346 345 345 346 346 346 346 347 347 346 346 346 346 346 346 346 346 346 346 345 344 344 342 343 342 342 341 341 341 339 339 338 336 332 329 328 328 331 334 334 334 333 332 332 334 336 336 336 335 334 333 332 330 328 326 325 318 319 319 320 322 322 323 325 324 331 332 334 335 333 333 332 332 332 334 333 332
342 345 345 345 343 343 340 344 345 346 345 345 347 347 345 347 347 347 346 346 345 346 346 346 346 346 345 345 344 343 342 342 343 342 342 341 340 339 338 338 335 333 330 328 329 331 333 334 333 332 331 332 333 334 334 333 332 331 329 327 326 325 321 319 319 316 317 318 320 322 322 326 325 331 333 333 334 334 332 330 332 331 331 332 332
342 343 345 345 344 344 340 339 342 343 345 346 346 344 345 346 347 347 346 346 345 345 346 346 346 345 345 344 344 343 342 341 342 342 341 340 339 338 338 336 334 334 331 329 329 331 331 332 331 331 330 331 332 332 331 330 327 324 322 322 320 318 316 311 312 313 314 316 317 320 321 324 332 330 332 334 333 333 332 330 331 331 331 332 331
334 340 344 345 344 342 342 340 338 340 341 343 343 343 345 346 346 346 347 346 346 345 345 345 345 345 345 344 343 343 342 341 341 341 340 339 338 338 337 336 334 333 332 329 327 327 328 328 328 328 328 328 329 330 328 327 325 323 321 320 317 315 312 309 306 308 311 312 315 318 321 325 332 330 329 332 331 330 332 331 330 330 330 330 331
323 326 330 331 334 341 342 341 338 335 334 337 338 341 342 344 346 346 346 346 346 346 345 345 345 344 344 344 343 343 342 340 340 340 339 338 338 337 336 335 333 332 331 330 326 324 324 324 323 324 325 326 326 326 325 324 323 321 319 318 316 314 311 307 303 304 308 312 313 316 321 327 331 330 333 333 332 335 334 333 330 330 329 330 331
321 321 321 323 324 327 329 333 338 340 341 335 333 335 337 340 342 343 343 343 344 345 344 344 344 344 342 340 339 339 340 341 340 340 339 338 337 336 335 334 333 332 331 330 328 324 323 322 323 323 323 322 322 322 322 321 321 319 318 316 315 312 310 307 302 304 308 314 311 316 322 334 332 335 337 336 336 336 336 336 335 334 334 332 332
319 319 320 319 320 321 323 324 328 337 341 340 339 336 334 336 337 338 339 341 342 340 340 341 340 339 338 336 335 334 333 334 335 336 337 335 334 332 335 333 333 332 331 330 328 324 323 322 321 322 323 322 320 320 321 320 319 318 316 314 312 309 308 304 302 305 308 311 312 315 323 333 333 334 333 333 333 335 336 335 335 335 335 334 331
316 317 316 316 319 319 319 321 323 325 334 340 339 338 331 331 335 335 336 337 338 338 338 337 333 331 329 330 328 329 329 330 328 331 331 333 331 330 332 333 332 332 331 330 328 325 324 324 321 321 322 322 323 322 321 320 319 317 314 312 309 306 300 300 302 305 308 312 315 315 327 330 331 332 332 331 332 332 333 333 334 334 335 334 334
315 315 314 315 316 316 317 320 320 323 325 335 339 340 336 330 331 329 329 332 334 334 333 327 324 322 324 323 325 328 328 330 330 331 325 329 323 326 330 333 332 331 330 329 327 325 325 325 323 323 322 320 317 317 317 318 317 315 313 309 306 300 300 300 302 306 309 311 315 317 327 328 329 331 331 330 329 330 331 331 332 333 333 334 333
312 312 313 313 314 315 315 318 319 321 322 325 336 339 335 334 337 335 332 329 328 326 329 332 329 330 323 328 331 327 327 329 331 329 330 328 327 324 325 330 332 331 330 328 327 326 325 325 324 324 322 319 314 307 308 312 313 312 310 307 302 300 300 301 303 306 309 312 315 322 326 326 327 329 328 328 329 329 330 330 332 332 332 332 331
311 311 312 312 313 313 314 316 318 319 320 321 327 338 337 337 338 336 333 329 329 329 332 330 332 330 331 332 330 329 328 330 331 330 329 324 327 323 325 328 330 330 329 329 327 326 325 324 324 321 319 315 309 308 307 306 305 308 306 302 301 300 301 302 303 305 307 313 315 324 325 325 325 326 327 327 328 327 328 329 329 329 329 328 328
307 308 309 311 312 312 312 314 316 318 320 320 323 333 338 337 338 336 334 332 332 333 333 332 332 331 331 332 332 330 328 329 328 325 325 328 325 322 323 323 324 324 322 322 323 323 323 321 320 317 314 310 308 308 307 306 305 303 302 301 300 299 299 299 301 303 306 311 315 323 324 324 324 325 326 327 327 326 326 327 327 328 328 327 327
306 307 307 309 310 311 311 313 316 319 321 319 321 327 335 337 337 337 334 333 333 333 333 332 331 331 332 332 332 330 329 329 329 329 330 329 328 327 326 326 324 320 318 316 314 313 312 311 311 311 309 309 308 307 307 305 304 302 300 299 299 298 297 297 298 299 302 306 312 318 322 324 325 326 326 327 325 325 326 326 326 326 327 326 327
304 306 306 307 309 310 311 313 316 320 322 321 326 327 329 335 337 337 334 333 332 331 331 332 332 332 331 332 331 331 331 331 330 330 329 329 328 327 328 326 324 321 319 316 314 313 312 312 311 309 308 307 307 306 305 304 301 300 299 298 297 296 295 294 294 295 297 301 307 315 317 320 323 326 326 325 325 326 326 327 327 327 326 327 326
301 301 302 304 307 309 312 315 317 321 324 327 329 329 328 330 331 331 331 329 329 328 327 327 328 329 330 329 331 331 331 331 330 329 328 329 327 327 327 326 325 323 322 317 314 313 313 312 310 308 307 307 305 304 303 302 300 298 297 296 295 294 294 293 292 292 293 296 303 310 313 316 320 322 324 325 326 326 326 326 326 327 326 326 325
302 303 303 304 308 311 312 315 321 323 327 328 326 325 326 325 325 325 325 323 325 325 324 324 324 324 326 327 326 328 329 329 329 328 327 328 327 327 326 325 325 323 321 318 314 312 312 311 309 308 307 306 304 302 301 300 299 298 296 295 295 294 293 293 293 292 291 292 296 304 308 313 316 318 321 322 324 325 326 327 327 327 327 327 325
304 304 305 307 309 311 312 315 321 325 325 324 323 322 322 322 322 321 320 320 321 321 322 323 322 322 322 323 325 324 324 325 324 323 324 321 322 323 324 322 322 321 318 315 313 310 309 307 306 306 305 303 302 301 300 299 298 297 296 295 294 294 293 293 292 292 291 291 292 297 304 307 312 315 317 320 321 322 323 324 324 324 324 326 325
306 306 307 308 309 311 312 313 316 319 321 322 320 320 318 319 319 318 317 316 317 319 320 319 320 320 320 321 321 322 321 320 319 319 318 317 318 318 319 319 318 318 316 312 310 308 305 305 305 304 303 302 301 300 299 298 297 296 296 294 293 293 292 292 291 291 290 290 291 292 299 302 306 312 314 316 318 320 321 321 323 324 325 326 324
306 307 307 308 310 310 310 311 313 314 318 318 317 316 315 315 315 316 316 315 315 316 317 318 318 318 318 318 318 319 319 318 318 317 316 315 315 314 313 312 311 310 309 306 305 304 304 304 304 304 303 301 300 299 298 296 296 295 294 293 292 291 290 290 290 290 289 289 289 289 291 297 301 304 310 313 315 317 319 320 321 322 323 324 324
305 306 307 308 309 309 309 310 310 312 314 314 313 313 312 311 312 311 312 313 314 314 314 314 314 316 316 316 316 316 316 316 316 315 314 313 311 310 308 307 306 306 304 303 302 303 303 303 304 303 302 301 299 298 297 295 293 293 292 291 290 289 288 288 288 288 288 288 287 287 288 290 295 299 302 309 312 314 316 317 318 319 320 320 321
306 306 306 307 307 308 308 309 309 310 310 311 310 310 310 310 310 310 309 310 310 311 311 312 312 313 314 314 314 314 314 313 313 311 310 309 307 305 303 302 302 302 303 303 303 303 303 302 302 302 301 300 298 296 295 293 292 291 290 290 289 287 286 286 286 286 286 286 286 286 286 287 287 292 296 301 306 309 312 314 315 316 316 318 318
305 305 306 305 307 308 308 308 308 308 308 309 308 308 308 308 308 308 308 308 309 308 307 308 308 308 310 310 312 312 312 311 310 308 307 305 302 301 300 299 299 300 301 301 301 302 303 303 302 301 301 298 295 294 293 292 292 291 290 289 288 287 286 285 285 284 284 284 284 285 285 285 285 286 287 293 299 304 307 311 312 313 313 313 315
304 304 304 305 305 306 306 305 306 306 307 307 306 305 306 304 305 306 306 306 305 305 306 306 305 305 306 307 308 308 309 309 308 306 304 302 301 300 300 299 299 300 301 302 302 303 303 302 302 299 297 296 295 295 293 292 291 290 290 289 287 286 285 284 284 284 283 283 284 284 284 285 285 285 285 285 290 298 302 305 309 310 311 311 312
304 303 304 304 304 304 305 304 304 304 303 304 304 304 302 302 302 302 304 303 303 302 302 302 302 302 302 302 304 305 306 306 306 305 303 302 300 299 299 300 300 299 300 301 301 301 300 300 300 298 296 294 294 293 293 292 291 290 289 288 286 286 284 283 284 283 283 283 283 283 283 284 284 285 287 284 284 289 298 300 303 306 307 307 308
303 303 303 303 303 303 303 303 302 301 301 302 302 303 301 300 300 300 299 299 300 300 299 299 298 298 299 299 301 302 303 303 303 303 302 300 299 298 297 297 298 299 297 297 298 298 298 298 297 298 296 294 293 292 291 290 289 288 287 286 285 285 284 283 283 283 284 283 282 282 282 283 285 287 283 283 283 284 290 296 297 300 302 303 304
303 304 304 303 302 302 301 301 302 301 300 299 300 300 300 298 298 298 298 296 296 297 296 296 296 296 297 297 298 299 300 300 300 300 299 298 298 297 296 295 295 294 294 293 293 295 295 296 294 294 294 293 291 289 288 287 286 285 284 284 284 284 283 283 283 285 282 283 282 282 282 282 282 282 283 283 283 283 284 288 292 292 295 299 301
303 303 303 302 301 301 301 300 299 299 299 298 298 297 298 298 299 296 296 295 294 294 294 294 295 295 295 296 297 297 298 298 298 297 296 295 294 294 293 293 293 293 293 292 292 292 292 292 291 290 290 290 289 287 286 286 285 285 284 283 283 282 282 283 282 281 281 281 284 284 283 282 282 282 282 283 283 283 283 284 284 283 285 295 297
302 302 301 301 301 300 300 299 298 298 300 299 298 297 297 296 296 295 293 293 293 293 292 292 293 293 294 294 295 296 296 296 296 296 294 293 292 292 292 292 291 291 291 291 291 292 292 291 290 289 288 287 286 286 286 286 285 284 285 283 283 282 282 282 281 281 281 281 281 282 282 282 282 282 282 282 283 283 283 283 285 283 283 286 292
301 301 301 300 300 299 299 298 298 298 298 298 299 297 295 295 294 293 291 292 291 291 291 291 291 291 292 292 293 294 295 295 295 294 293 293 292 291 291 290 290 291 292 292 292 292 292 291 289 289 287 285 284 283 283 283 284 282 283 282 283 283 284 282 281 281 281 280 280 281 281 282 282 281 281 282 282 282 282 283 283 282 282 282 283
299 300 300 300 300 300 299 298 298 298 298 298 298 297 296 294 293 291 291 291 291 290 289 290 290 290 290 291 290 291 292 292 292 292 292 291 290 290 290 289 290 289 288 288 289 290 289 288 288 286 283 285 281 281 282 284 283 280 280 280 281 282 284 281 282 281 280 280 281 281 281 281 282 281 281 281 282 282 282 282 282 281 281 281 281
299 299 300 299 299 299 299 298 299 298 298 296 295 294 294 293 291 290 289 288 289 289 289 289 289 288 288 289 289 290 290 289 289 290 289 289 289 288 287 287 287 287 287 285 285 285 286 287 287 287 284 281 282 283 281 282 282 281 280 281 280 280 285 278 279 281 280 280 280 281 281 280 281 281 281 280 280 281 281 281 281 280 280 280 280
298 298 298 298 298 298 299 298 297 296 295 294 294 292 291 291 290 290 290 289 287 289 288 288 288 287 287 288 288 288 288 288 287 287 287 286 286 285 283 282 283 283 285 284 283 283 283 284 285 286 286 283 279 281 282 281 281 282 282 281 278 280 278 278 277 280 278 279 280 280 280 279 279 280 280 279 279 280 280 280 280 280 279 279 279
298 298 298 298 298 298 298 297 295 295 294 293 292 292 291 289 289 289 289 288 289 288 287 286 286 287 286 286 286 286 286 286 285 285 285 283 283 283 282 282 282 282 283 283 282 281 281 281 283 285 284 285 279 278 281 281 280 281 282 276 276 278 276 276 276 279 279 278 279 279 281 278 278 280 279 278 278 279 279 279 279 279 278 278 278
297 298 299 297 298 298 297 296 295 293 292 292 291 292 291 290 289 289 288 287 286 287 285 284 284 285 285 285 285 284 284 283 283 283 283 283 282 282 281 282 282 282 282 282 281 281 281 281 280 281 281 281 281 279 279 281 281 281 280 279 278 277 275 277 276 277 277 278 278 278 277 277 276 278 278 278 278 278 280 279 278 278 278 278 278
297 297 297 296 297 297 295 294 293 292 292 291 291 291 290 290 291 291 290 288 286 284 283 284 284 284 284 283 282 282 282 282 282 281 282 282 281 281 281 281 282 282 282 282 281 281 281 280 281 281 281 283 281 279 279 279 279 280 279 279 279 277 276 276 276 276 276 276 275 276 276 277 276 276 278 277 277 277 278 279 277 277 277 277 277
297 296 295 294 296 295 295 294 293 292 291 291 291 291 290 290 289 288 287 286 285 284 284 284 284 283 282 281 281 281 281 281 281 280 281 281 281 281 281 281 281 281 282 281 281 280 281 281 281 280 280 280 279 280 278 278 278 278 279 278 278 278 277 277 275 277 276 274 275 275 275 276 275 275 276 276 276 277 277 277 277 276 276 276 276
296 295 293 293 295 295 295 293 293 291 291 291 290 290 290 290 289 287 285 284 284 284 284 285 283 282 281 280 280 280 280 280 280 280 280 281 282 280 280 281 281 281 281 280 280 280 280 279 280 280 280 279 280 279 279 278 278 278 277 277 277 277 276 276 276 276 275 273 273 273 274 275 275 274 276 275 276 276 277 277 278 276 278 276 276
296 295 293 293 293 293 293 292 291 291 291 290 289 288 288 289 288 286 285 284 284 282 282 281 281 280 280 279 279 279 279 279 279 279 280 279 280 280 280 280 280 280 281 280 280 279 279 279 279 279 279 279 279 279 278 277 277 276 277 278 277 276 276 276 275 274 275 274 275 274 274 273 273 274 275 275 276 275 275 276 275 275 275 275 275
295 294 293 293 292 292 291 291 290 290 290 289 288 287 287 288 287 287 285 283 282 282 280 279 279 279 279 279 278 279 279 279 279 279 279 279 280 280 280 280 280 281 280 279 279 279 279 279 279 279 279 279 279 279 279 278 278 278 277 276 276 276 275 275 275 276 273 272 272 273 273 274 273 273 274 275 277 275 275 275 274 274 274 274 275
Wind_Speed
2 5 4 7 7 5 8 10 10 10 9 10 10 10 11 10 10 11 11 11 10 11 11 12 14 14 14 14 16 16 16 15 15 15 15 15 15 16 16 15 15 15 15 15 15 15 14 14 14 13 14 14 14 15 15 14 14 14 15 15 16 16 17 17 17 17 17 18 19 19 19 19 19 19 19 19 20 20 19 19 17 10 9 12 19
6 4 5 4 7 5 7 9 9 10 10 10 9 10 10 10 10 10 10 11 11 11 12 12 13 13 14 14 15 15 15 15 14 14 14 15 16 15 15 15 15 16 16 16 16 16 15 15 14 14 14 14 14 14 14 14 14 14 14 15 16 16 17 16 16 16 17 16 16 17 16 19 20 20 19 20 20 20 19 19 19 11 8 17 18
2 5 4 5 6 4 7 6 5 9 9 10 10 9 10 10 9 10 10 10 11 11 11 12 13 13 13 14 14 14 14 14 13 14 15 15 15 14 15 15 15 15 15 16 16 16 16 15 15 15 14 14 14 14 14 15 13 12 13 15 16 16 16 16 16 16 16 16 15 14 14 14 19 20 19 19 20 19 19 18 18 17 11 20 18
7 5 5 5 6 4 7 6 5 4 8 10 10 9 9 9 9 9 9 10 10 11 12 12 12 13 13 13 13 13 14 13 14 14 15 14 14 14 14 14 14 15 15 16 16 16 16 16 15 15 14 14 14 14 15 14 14 13 14 15 16 16 16 16 16 16 16 15 14 11 7 8 10 19 19 18 19 19 18 19 19 19 19 18 20
4 4 6 6 5 4 7 7 6 3 2 10 10 9 9 9 9 9 9 9 10 11 11 11 12 12 12 12 13 14 14 13 14 14 14 13 13 13 13 14 14 15 15 15 15 16 16 15 15 15 15 14 14 14 15 14 14 13 14 16 16 16 16 16 16 16 15 14 13 9 7 7 6 17 18 19 19 18 18 18 19 19 19 20 18
4 4 5 5 5 5 9 6 5 6 5 10 10 9 10 9 8 9 8 9 10 10 11 12 11 12 12 12 12 13 13 14 13 13 13 13 13 13 13 13 14 14 15 15 15 16 16 16 16 15 15 15 15 15 15 15 14 15 16 17 17 17 16 16 15 15 14 13 11 7 7 7 6 8 20 19 18 19 18 19 19 18 19 20 18
5 4 5 5 7 5 14 8 7 7 9 11 11 10 9 9 8 9 9 8 9 10 10 11 11 11 11 11 12 12 12 13 13 13 13 13 14 14 14 13 14 14 15 15 15 15 16 16 16 16 16 15 15 15 15 15 15 16 17 18 17 17 16 15 14 13 12 8 6 6 6 7 6 5 19 17 18 19 19 19 19 20 20 20 19
2 4 4 4 6 4 11 15 13 11 8 8 10 10 9 9 8 9 9 8 9 9 10 10 10 11 11 11 11 11 13 13 14 14 13 13 13 13 13 14 14 15 15 15 15 16 16 16 16 16 17 16 16 16 15 15 16 17 19 18 17 16 15 14 13 12 12 7 6 6 6 6 6 4 17 18 20 20 19 19 19 19 21 21 17
4 4 4 3 5 10 7 12 11 10 11 9 10 10 9 9 8 8 9 8 8 8 9 9 10 10 11 11 11 13 13 15 14 13 12 12 12 12 13 14 15 15 15 15 15 16 16 16 16 16 17 17 16 16 16 16 17 18 18 17 17 16 15 14 13 12 7 6 7 6 6 6 5 5 15 18 20 20 20 17 14 20 20 18 17
3 4 4 3 4 9 8 9 12 11 10 9 9 11 10 9 8 9 9 8 8 8 9 8 9 10 10 11 12 12 14 14 13 11 12 12 12 12 13 14 15 15 15 15 15 16 16 16 16 16 17 18 17 16 16 17 18 18 18 17 16 16 15 14 13 10 7 7 8 7 7 8 4 4 13 18 19 20 19 17 15 13 14 18 20
2 3 4 3 4 7 6 8 9 8 8 9 9 10 10 10 10 10 9 8 8 8 8 8 8 9 11 11 11 12 12 13 12 11 11 11 12 13 13 14 15 15 15 15 16 16 16 16 17 17 17 18 17 17 18 19 19 19 18 17 16 16 15 14 11 7 7 8 8 7 7 10 5 4 15 17 18 19 19 17 16 17 19 21 20
2 3 3 3 5 7 9 6 10 10 6 7 8 7 9 10 9 11 10 9 8 8 8 8 8 9 10 11 11 12 12 12 12 11 11 11 12 12 13 14 15 15 16 16 16 16 16 16 17 17 18 17 17 19 19 19 19 19 18 17 17 16 15 14 9 7 8 8 8 7 7 6 5 9 17 18 18 18 18 18 17 18 19 20 21
2 2 3 3 2 5 10 9 8 13 11 7 9 9 7 9 9 10 10 9 8 8 8 8 8 9 9 10 11 11 11 11 11 11 11 11 12 13 13 14 15 15 16 16 16 16 16 17 17 17 18 18 18 19 20 19 19 18 18 17 16 15 14 15 8 9 8 8 7 8 7 5 4 15 16 17 17 17 17 18 18 18 18 18 19
4 4 2 2 1 3 6 8 7 9 11 9 9 7 8 7 9 9 10 9 8 8 8 7 8 9 9 10 11 11 10 11 11 11 12 12 12 13 14 14 15 16 17 17 17 17 16 17 18 18 18 18 19 19 19 19 19 19 18 17 16 15 14 10 9 8 8 8 8 8 7 6 6 16 17 16 17 17 17 16 17 18 18 18 18
3 4 3 2 1 3 3 6 6 7 7 7 7 6 3 7 7 8 8 7 8 8 7 8 8 9 9 10 10 9 10 10 11 11 12 11 12 13 13 14 15 16 17 17 17 17 17 17 17 18 18 18 18 18 19 19 19 18 18 17 16 16 14 8 8 7 8 8 7 8 7 5 15 15 16 17 17 17 17 17 16 16 17 17 18
7 4 2 2 2 2 1 2 4 5 8 8 7 6 4 4 5 7 8 8 7 7 6 7 8 8 9 10 9 9 9 10 11 12 11 11 12 12 13 14 15 16 16 17 17 17 17 17 16 16 17 17 17 18 18 18 18 18 18 17 17 16 15 9 7 7 7 7 8 8 7 4 15 15 14 17 16 14 16 15 16 17 16 16 16
7 8 8 8 7 3 1 1 1 5 3 5 8 4 4 4 5 5 7 7 7 8 6 6 7 8 9 8 9 7 8 8 10 12 11 10 11 12 13 14 15 15 16 16 17 16 17 17 17 17 16 17 18 18 18 18 18 18 18 17 17 17 15 11 8 6 7 7 7 7 7 4 12 15 17 17 16 16 15 16 14 15 15 16 16
8 8 8 6 7 5 6 5 5 2 4 4 5 5 4 3 4 6 6 6 7 7 6 6 7 6 6 7 8 8 8 8 9 11 10 9 10 11 13 14 14 15 15 16 16 16 17 17 17 17 17 17 18 18 18 18 18 17 17 17 16 16 14 11 7 6 7 7 7 6 6 10 16 19 19 18 18 17 18 18 17 16 15 15 16
7 7 6 6 6 4 5 6 6 4 4 3 3 5 4 5 5 4 4 7 7 7 7 6 6 6 7 7 7 9 9 10 10 10 10 9 9 10 11 12 14 14 14 15 15 16 16 17 17 17 17 18 18 18 18 18 17 17 17 16 15 14 14 9 7 7 8 7 6 7 6 15 18 20 20 18 19 21 20 17 20 20 16 16 16
6 6 5 4 4 5 5 5 7 7 5 3 4 3 4 6 6 6 5 4 7 8 7 6 6 6 7 8 8 8 8 8 10 9 10 9 9 8 10 11 13 14 14 14 15 15 16 17 17 18 18 18 18 17 17 17 17 17 16 16 14 12 9 7 7 8 7 7 6 6 12 18 19 20 19 18 16 18 19 20 21 21 21 20 20
4 6 6 4 5 6 7 7 6 5 5 4 1 4 4 7 5 6 6 7 6 7 8 8 7 6 7 7 7 5 5 5 7 6 9 7 8 9 10 10 12 13 14 14 15 15 16 17 18 18 17 17 15 16 17 17 17 17 16 15 13 10 8 8 8 7 7 7 8 5 15 16 19 19 18 18 16 17 18 19 20 22 22 22 22
6 6 5 7 7 7 8 7 4 5 6 4 2 2 3 5 4 3 2 4 5 5 6 5 5 4 6 5 4 4 4 4 5 7 6 7 8 10 10 10 11 11 12 14 14 15 16 17 17 17 16 15 14 8 8 12 16 16 15 14 10 8 8 8 9 8 9 8 8 9 17 18 18 18 17 18 18 18 18 19 20 21 22 22 21
4 6 6 8 6 4 4 5 5 4 4 5 3 0 5 3 3 3 3 3 4 4 4 5 3 4 3 4 3 2 3 4 4 5 5 7 7 9 10 10 11 12 12 12 14 15 16 17 17 15 15 13 8 7 7 7 8 11 10 9 8 8 8 9 9 8 9 9 8 14 14 17 17 17 18 18 18 18 19 20 21 21 21 20 19
3 3 4 4 3 3 4 4 4 5 4 3 3 2 3 3 3 3 3 3 4 3 4 5 4 3 3 3 3 3 2 3 4 7 7 5 6 9 10 10 10 13 12 9 11 13 15 15 14 13 9 6 7 7 7 7 7 7 8 8 8 8 9 8 8 8 8 10 11 20 17 18 18 18 18 17 19 18 18 18 20 21 20 18 19
3 4 3 5 7 5 5 4 6 5 4 3 1 1 2 2 2 4 4 3 4 3 3 5 4 4 3 3 3 3 3 3 4 4 4 4 5 4 6 5 4 7 8 7 6 6 7 7 7 8 7 7 8 7 7 8 8 8 8 8 8 8 9 8 8 8 9 9 13 22 21 20 19 18 18 17 17 17 18 18 18 20 20 20 21
2 4 4 5 5 5 4 5 4 3 3 2 2 1 2 1 3 3 4 3 4 4 0 5 4 4 3 3 4 4 4 3 3 5 4 5 5 5 5 5 4 5 5 6 5 6 6 6 7 8 7 7 8 8 7 8 8 8 8 8 8 8 8 8 8 9 8 9 12 22 22 22 22 20 19 19 19 18 19 19 20 20 20 20 21
3 2 3 3 4 4 4 4 4 4 4 2 3 4 4 4 3 3 4 4 5 4 3 2 4 4 5 3 5 4 3 3 4 4 5 4 4 5 6 5 4 5 5 6 6 5 6 6 7 7 7 9 9 8 9 9 8 9 9 9 8 8 8 8 8 9 8 9 12 23 22 23 23 22 21 20 19 19 20 20 20 20 21 22 21
2 3 3 3 3 5 5 5 3 3 1 1 4 4 4 5 4 5 3 6 3 5 4 2 4 4 2 3 2 2 4 3 4 4 4 4 5 5 6 6 5 5 5 6 6 5 6 5 6 7 9 9 10 9 9 8 8 8 10 9 9 8 8 8 8 9 8 9 10 18 22 23 23 23 22 21 21 21 21 21 20 20 22 22 22
2 3 3 3 3 4 4 4 3 1 2 4 4 4 4 5 4 5 4 4 6 4 3 4 4 4 4 4 3 4 2 2 3 3 3 5 5 5 6 6 5 5 6 6 6 7 6 5 6 8 8 8 9 9 9 8 8 8 9 9 9 8 8 8 8 9 8 8 9 15 22 22 22 23 23 23 21 22 23 23 21 19 22 23 23
2 2 2 3 3 4 4 3 3 2 2 5 5 4 4 6 2 6 5 5 5 4 3 5 4 4 4 5 6 5 5 4 4 5 6 6 5 6 7 6 6 5 6 8 6 7 6 6 7 8 8 8 9 9 9 8 9 8 8 10 9 7 6 7 8 8 7 8 8 10 20 21 22 22 23 23 23 23 22 22 22 22 22 23 25
2 2 2 3 3 4 4 4 4 4 3 4 7 3 5 5 4 5 4 5 6 4 4 4 5 5 5 6 6 6 5 5 5 7 7 6 6 6 6 6 7 6 6 7 5 6 6 6 7 8 7 9 9 8 8 9 9 9 8 10 8 7 6 6 7 8 8 8 7 8 11 20 22 22 22 23 24 23 24 23 24 23 22 23 24
1 2 2 3 3 4 4 4 4 4 5 5 6 5 5 7 5 4 4 6 7 4 5 4 5 4 5 6 5 5 6 5 6 6 7 6 6 7 6 7 7 6 5 6 7 6 7 8 9 9 8 9 9 8 8 9 9 8 8 10 8 7 6 6 8 8 8 8 7 8 8 10 18 22 22 23 24 24 23 24 24 24 23 23 24
0 2 2 2 4 4 4 4 4 5 5 5 5 6 5 6 6 4 5 6 6 4 5 4 4 4 5 5 6 7 5 5 6 7 7 7 7 7 7 7 6 6 6 8 9 8 7 7 9 8 9 9 10 9 8 9 9 8 8 9 8 7 5 6 7 8 8 7 7 7 7 8 9 15 20 21 23 24 23 24 24 24 24 23 23
1 1 2 3 2 2 2 3 5 5 5 5 5 7 5 5 4 5 6 5 6 5 5 5 5 5 4 5 7 7 7 4 6 7 6 7 7 7 7 6 6 5 6 6 8 6 8 8 7 8 8 9 9 9 9 9 8 7 8 7 7 5 5 7 7 7 7 7 6 8 7 7 8 8 9 17 21 23 24 24 24 24 24 24 24
1 1 2 2 3 3 3 3 4 6 5 5 6 6 4 4 5 7 6 5 6 5 5 4 5 5 4 5 7 7 7 5 5 8 7 7 7 7 7 6 6 6 7 5 8 6 7 8 7 9 8 8 9 8 10 8 8 9 7 6 6 5 6 6 6 7 7 6 7 7 8 8 8 8 8 8 12 20 22 23 23 24 25 25 25
2 2 2 2 4 4 4 4 5 6 4 6 6 6 6 3 6 7 5 6 7 6 4 5 5 5 5 6 7 7 7 6 5 7 9 6 6 6 5 6 6 6 7 6 7 8 7 8 5 8 11 9 10 9 8 9 8 9 6 7 5 6 6 6 7 7 6 7 8 7 7 8 8 8 8 8 8 11 21 21 23 24 25 25 26
3 3 3 3 4 4 4 4 5 6 5 7 6 6 6 6 6 6 6 7 7 5 4 4 5 6 5 5 6 7 7 7 6 7 8 7 7 7 6 6 6 7 7 6 7 6 8 8 6 5 9 10 11 10 9 8 8 8 7 7 6 6 7 6 6 6 5 8 7 7 8 8 8 8 7 8 7 7 14 20 20 22 23 24 25
4 3 3 4 5 4 4 5 5 5 5 6 6 5 6 7 6 5 7 7 7 4 4 5 5 5 5 6 6 7 7 6 6 6 8 7 6 7 6 6 6 6 7 7 6 5 6 8 9 6 6 10 9 10 9 8 7 7 7 7 6 7 6 6 6 5 7 8 7 7 6 6 7 7 8 7 7 8 7 13 18 19 22 23 25
4 4 5 5 4 5 5 6 5 5 5 6 7 6 6 7 7 6 7 7 5 5 5 5 4 5 6 6 6 6 6 6 6 6 8 7 7 6 6 6 5 6 8 8 7 7 7 7 11 9 7 7 8 8 9 8 8 7 7 6 6 6 6 6 5 6 7 6 6 6 6 7 7 7 8 8 7 8 9 8 8 8 11 23 23
4 5 5 5 5 5 5 5 5 5 5 4 4 4 4 5 7 6 8 5 4 6 6 4 3 5 6 7 6 6 5 5 5 6 6 6 7 6 6 5 5 6 8 9 8 8 11 12 11 13 12 9 7 7 7 10 8 8 6 6 6 5 7 6 7 7 6 6 6 6 7 6 7 7 8 7 7 8 8 8 8 8 8 14 22
4 6 6 5 5 6 7 7 6 6 5 5 3 3 4 6 6 4 5 4 5 5 5 3 5 5 6 7 7 5 5 6 5 5 6 7 7 6 6 5 4 6 8 8 8 9 8 10 10 8 12 11 5 3 3 4 9 7 5 5 6 4 5 6 8 7 7 6 5 6 6 7 7 8 7 7 8 8 8 8 8 8 9 8 11
5 6 7 6 7 6 6 7 6 6 5 5 5 3 3 2 6 5 5 4 3 3 4 4 4 6 7 7 6 6 6 6 5 5 6 6 7 6 6 6 6 6 7 7 7 7 8 9 10 8 4 6 4 1 2 1 2 5 6 2 3 3 2 5 7 6 5 6 5 6 6 7 8 7 7 7 8 9 8 7 8 9 9 9 9
7 7 6 7 6 6 6 7 6 5 5 5 5 4 6 5 5 5 4 5 5 4 5 3 4 7 7 7 7 6 6 5 5 5 5 6 6 7 6 6 6 7 9 8 7 7 6 7 7 12 8 4 4 3 3 2 3 3 3 5 1 2 1 4 3 5 6 5 6 7 6 7 7 6 6 7 7 7 7 7 8 8 8 9 9
6 6 6 7 6 5 6 6 5 5 4 6 6 6 8 8 9 7 7 5 5 5 6 6 6 7 8 7 5 4 7 6 5 5 6 6 6 7 6 6 6 4 8 10 7 6 5 5 6 7 11 7 2 4 4 2 3 5 2 1 2 2 1 1 1 2 3 4 7 7 6 6 6 6 6 8 6 6 6 6 8 7 7 8 8
7 7 7 7 6 7 7 6 6 6 5 6 8 8 10 9 7 9 8 7 6 5 6 6 5 5 5 6 4 5 5 6 5 5 5 6 5 5 6 6 6 5 5 8 7 6 4 4 5 7 4 9 5 2 5 4 5 2 5 3 1 0 2 1 1 1 4 3 5 5 6 7 7 6 6 6 5 5 5 6 6 7 7 7 8
8 7 7 7 6 7 7 7 6 6 7 7 8 8 8 11 10 9 6 4 5 4 4 6 5 5 4 2 5 5 4 5 5 5 5 5 6 5 5 7 7 6 6 7 6 6 5 5 2 4 6 2 8 6 4 4 6 8 5 2 1 2 5 2 2 1 1 1 1 2 4 5 4 4 5 6 6 5 5 6 6 7 7 8 7
7 6 5 6 6 7 7 7 7 7 7 8 8 6 7 5 6 8 9 10 9 2 2 3 4 3 4 5 5 4 4 5 4 4 5 5 6 5 6 7 7 6 5 7 7 6 5 4 3 6 5 6 6 7 8 5 5 7 5 5 7 4 3 5 2 2 1 1 1 2 3 5 3 4 5 5 4 5 5 4 5 6 6 6 6
7 7 6 5 7 7 7 7 6 7 7 8 7 5 6 6 6 6 5 5 5 8 6 4 4 4 6 5 4 4 4 4 5 4 4 5 6 6 6 6 7 5 6 7 7 5 6 5 5 5 5 5 4 10 6 1 5 2 2 5 6 6 7 8 3 2 3 2 3 4 1 4 4 3 3 4 4 4 4 4 4 5 6 6 6
8 8 7 7 7 7 7 7 7 7 7 7 7 5 4 4 6 8 8 5 6 6 5 4 5 5 7 4 5 4 4 4 4 4 4 5 4 6 6 7 8 6 6 7 6 5 6 6 6 7 7 6 5 4 7 5 6 5 4 5 6 6 6 5 3 5 3 3 1 1 4 4 3 2 4 3 3 3 3 3 4 5 6 6 7
7 7 7 6 7 7 8 8 8 7 7 7 5 4 3 5 7 6 11 8 6 6 4 6 5 4 6 5 4 5 4 5 4 4 5 4 5 5 7 7 7 6 6 7 7 7 7 7 6 6 6 8 4 6 7 5 5 3 4 4 5 4 5 5 5 4 4 3 3 0 1 3 4 4 3 6 5 3 3 3 4 6 6 6 6
7 8 7 8 7 8 9 9 8 7 7 7 6 5 5 5 6 8 12 13 9 9 8 5 5 5 7 5 4 4 3 5 5 4 4 4 5 5 6 6 6 6 7 7 7 7 6 7 7 8 8 8 6 8 7 6 6 6 5 5 5 3 4 3 3 1 3 1 2 1 3 3 3 4 2 3 3 3 4 3 5 6 6 6 5
Wind_Direction
244 175 194 189 193 212 174 146 144 135 126 117 113 113 108 103 104 102 100 98 98 96 93 94 94 96 99 94 88 85 82 79 76 73 71 69 65 58 54 50 49 48 48 48 47 46 47 47 47 46 46 46 48 52 53 54 58 64 68 71 70 67 64 60 55 52 49 46 45 40 39 43 42 43 43 42 42 40 37 34 32 28 28 36 41
180 194 177 195 194 198 175 144 141 136 128 120 117 113 109 110 109 106 104 103 101 101 100 98 96 96 94 93 91 89 88 85 82 79 76 71 65 59 54 50 47 44 44 44 44 44 44 45 46 44 43 42 45 50 56 60 67 68 71 73 73 70 66 63 60 57 53 49 44 40 31 40 44 43 41 39 40 38 36 34 33 30 21 33 41
205 152 180 185 186 195 160 116 122 136 128 121 118 116 116 115 113 112 108 104 102 102 101 101 104 104 101 97 95 93 92 91 88 82 78 70 67 60 55 52 47 45 43 44 44 44 44 45 46 45 43 40 42 47 57 67 71 72 77 77 76 72 67 65 61 57 54 50 44 39 31 25 39 44 44 39 38 37 34 33 32 31 29 29 33
146 165 155 163 161 157 131 119 71 27 133 125 118 115 118 118 114 111 111 110 108 106 104 100 101 102 102 100 99 99 97 94 90 84 79 76 68 63 57 53 49 46 45 46 46 46 46 46 46 47 45 43 43 48 57 65 71 79 82 81 78 72 68 65 61 57 53 49 45 39 33 27 27 42 45 43 38 36 33 32 32 32 32 32 33
140 151 150 150 147 167 134 126 128 113 147 132 123 122 124 123 120 116 114 114 112 109 108 106 104 103 101 102 104 102 99 95 89 83 82 77 70 65 60 55 51 48 46 46 47 48 49 48 48 48 47 47 47 51 57 62 71 82 84 82 77 72 68 63 59 55 51 47 45 42 35 29 22 40 43 45 42 38 37 37 36 32 31 33 32
158 143 134 144 149 165 143 131 151 150 181 141 133 131 131 131 128 118 114 116 110 109 108 107 104 103 102 100 100 100 100 96 92 88 83 77 70 66 61 57 54 51 49 47 47 49 50 50 50 50 50 51 52 55 58 62 76 84 84 81 75 71 66 61 57 51 46 42 39 39 33 31 28 34 43 43 44 41 38 37 37 37 35 34 33
156 143 131 147 144 185 131 152 173 155 197 147 138 134 135 133 128 121 116 117 113 107 104 106 105 104 102 100 102 104 103 100 94 89 80 73 69 65 62 59 56 52 51 51 49 50 50 51 52 53 54 55 56 57 59 69 80 86 86 79 72 69 64 59 53 49 45 42 35 32 32 29 27 30 45 45 45 43 39 37 37 35 35 36 35
149 144 138 146 107 155 159 156 190 161 192 146 140 141 139 134 129 122 119 116 116 111 107 108 108 107 106 105 106 102 100 94 87 79 74 70 67 63 60 56 55 53 53 53 53 53 52 52 53 56 58 56 57 59 65 75 81 82 77 74 71 66 61 56 50 45 43 37 32 32 32 28 26 28 49 46 46 44 42 39 39 38 37 38 38
162 137 139 143 138 177 160 179 154 171 156 155 148 144 142 137 126 121 120 119 117 115 113 112 112 112 109 110 106 103 96 90 83 79 76 71 66 64 62 58 55 53 54 55 55 57 57 57 57 59 58 57 57 62 69 78 79 78 75 72 70 65 61 56 50 44 37 35 28 24 34 35 25 25 48 48 47 45 43 43 38 41 41 44 44
145 129 148 134 169 168 162 172 160 159 154 163 154 147 146 133 126 125 122 125 120 115 115 117 116 115 111 107 106 104 102 98 93 88 81 74 69 65 62 60 57 55 53 56 58 59 62 63 62 61 59 59 61 66 73 77 78 76 71 68 66 63 57 53 48 41 38 31 29 22 20 36 28 19 49 47 46 46 45 42 45 42 45 45 45
138 129 144 148 153 163 157 156 137 172 149 158 175 148 144 138 136 132 128 127 123 121 121 116 114 113 112 112 111 106 103 101 97 91 84 77 70 65 63 60 58 56 55 56 58 61 64 66 66 64 62 62 66 70 72 72 71 66 63 62 57 54 51 46 44 35 35 32 31 24 12 14 27 16 51 47 47 47 44 42 46 46 44 45 43
159 138 147 138 162 160 154 181 165 144 180 179 158 138 148 143 145 138 133 131 134 128 115 113 111 114 118 118 114 110 108 103 102 96 89 80 74 68 66 63 59 57 57 57 58 62 65 67 69 67 65 66 68 71 70 66 62 62 59 55 52 48 45 42 39 32 32 28 27 18 17 4 21 39 48 52 48 46 45 43 45 47 45 43 42
143 118 123 135 142 167 163 188 172 149 180 173 152 154 160 151 147 139 138 139 135 128 117 119 117 119 121 120 118 115 113 109 103 97 91 83 75 70 67 65 62 60 59 58 59 63 66 67 67 67 67 68 68 68 65 64 63 60 57 54 50 47 44 43 36 31 26 24 23 14 10 358 12 42 46 47 50 46 44 43 43 46 47 46 44
140 142 129 143 154 163 179 172 168 165 158 191 152 146 153 164 150 146 141 141 137 129 126 123 125 125 125 126 124 122 120 115 106 100 91 84 78 72 69 66 64 62 60 59 63 65 67 67 67 67 67 68 70 69 65 64 62 59 56 51 47 44 42 41 38 32 27 20 17 13 6 351 34 38 50 46 48 48 47 45 47 42 47 46 44
129 134 146 141 147 177 173 177 171 173 159 159 146 133 159 168 152 147 140 135 136 134 132 129 133 134 130 130 130 128 123 116 109 98 93 85 80 77 73 70 68 65 63 62 65 65 66 67 67 67 67 68 68 68 68 66 63 60 57 53 49 46 44 43 38 31 26 18 12 13 4 333 51 40 44 50 47 47 48 42 47 47 43 44 44
40 26 100 125 149 119 166 154 165 160 159 155 138 157 182 150 146 150 141 132 134 136 130 131 136 139 135 135 135 130 126 115 108 101 92 88 82 80 78 76 73 69 66 66 66 67 66 66 67 67 68 69 71 70 68 66 63 59 55 52 50 47 45 51 43 33 24 19 12 11 358 338 55 50 44 52 49 47 55 47 41 43 40 42 47
35 36 38 29 18 21 88 112 132 160 106 138 147 173 134 128 149 146 144 136 135 135 132 136 138 141 143 139 133 127 110 115 112 105 99 92 89 84 83 81 78 73 70 68 68 68 68 68 67 67 69 71 71 70 69 67 64 61 58 55 53 49 47 48 46 32 27 23 18 5 355 347 56 50 47 49 41 38 41 37 43 41 42 40 44
48 42 39 16 25 16 31 28 2 189 141 138 144 179 135 118 112 129 140 137 131 132 132 134 142 140 132 126 121 118 110 109 114 107 103 97 94 92 88 87 84 78 74 70 69 70 71 70 68 67 69 71 72 71 70 67 64 61 58 55 52 49 46 48 48 32 28 24 15 3 3 22 43 50 44 43 45 46 43 35 34 36 34 43 39
56 48 46 25 16 16 25 29 19 336 148 152 143 190 154 134 103 100 140 147 137 133 126 132 138 132 122 114 110 105 103 106 107 110 110 106 94 89 92 95 92 86 80 74 71 72 73 73 72 72 70 70 71 70 69 68 67 64 61 58 53 49 45 44 42 35 30 23 8 9 7 50 52 49 41 36 37 37 44 43 41 34 41 36 39
56 41 34 25 32 34 33 30 17 11 321 134 148 166 149 132 109 81 75 104 132 132 126 126 125 115 111 110 108 110 115 118 123 118 120 112 100 99 97 98 96 93 86 80 77 76 75 75 76 73 68 64 61 60 62 63 62 60 58 55 51 46 43 40 38 35 26 19 11 3 27 38 46 47 42 38 38 37 36 35 42 47 50 44 38
37 34 19 3 26 27 23 27 14 351 316 43 122 175 168 144 132 112 107 119 129 131 116 110 104 102 110 116 117 118 125 130 129 125 119 114 108 104 103 100 99 95 91 86 85 82 77 76 77 74 70 65 57 52 49 54 55 56 56 53 48 43 38 38 36 33 25 15 14 3 42 42 47 47 44 42 42 42 39 38 37 36 43 46 39
347 357 19 11 9 16 15 10 348 331 349 14 352 143 118 150 138 118 121 123 129 123 118 117 121 105 126 129 124 125 129 136 131 131 126 126 120 114 113 109 103 93 91 91 89 84 79 77 75 72 68 64 60 55 46 44 48 53 54 53 51 48 40 40 38 29 24 13 6 29 50 50 52 52 50 48 47 47 46 45 44 41 41 42 39
8 358 351 2 8 352 4 357 323 327 344 12 339 298 146 135 149 134 117 137 126 125 111 112 96 103 137 129 109 108 129 135 136 136 137 136 123 115 112 112 109 97 92 93 92 86 82 78 75 71 67 62 59 58 55 49 42 39 42 49 55 50 46 42 41 35 26 17 13 19 52 54 53 55 52 51 52 51 49 48 47 44 42 41 40
336 355 327 330 348 355 343 336 310 333 348 360 334 307 125 140 136 133 112 114 120 122 132 121 111 131 138 131 124 106 101 116 122 126 120 116 110 110 108 104 97 92 87 77 69 75 79 74 72 69 65 63 64 60 62 56 51 48 49 49 51 48 47 41 39 34 28 23 26 21 42 51 52 50 51 51 51 52 52 49 48 47 43 40 37
312 316 347 342 344 345 340 339 333 323 348 324 270 301 50 131 167 137 126 130 127 126 148 132 135 143 148 129 126 126 125 120 136 140 139 132 133 131 117 103 88 95 94 89 84 77 77 80 74 69 66 67 66 59 64 66 57 54 52 47 50 49 49 44 41 39 31 28 30 33 38 50 48 50 50 49 47 46 46 47 46 47 46 44 40
317 16 345 334 335 326 317 319 316 298 273 285 315 35 41 64 195 148 132 132 118 113 101 135 137 148 150 152 141 153 148 150 155 154 155 159 155 137 117 99 84 92 93 90 79 80 78 82 82 79 74 72 72 70 65 69 71 64 58 52 50 52 51 46 42 42 34 32 28 37 40 47 52 50 49 51 49 47 46 44 45 44 45 44 41
358 330 320 319 315 325 328 317 319 324 323 337 11 25 34 35 34 66 122 111 112 105 90 52 115 132 143 166 161 162 168 168 170 169 164 159 134 129 117 112 106 96 89 93 85 78 85 84 85 85 82 77 73 72 69 65 65 72 65 58 54 55 54 50 46 44 38 35 28 34 40 44 49 51 51 51 49 48 47 47 47 48 49 46 45
16 333 339 324 329 348 339 324 307 284 202 92 75 66 60 65 64 71 52 84 69 113 100 95 89 46 81 135 137 134 173 177 179 170 158 143 138 124 109 104 96 90 88 91 93 81 79 80 88 83 83 80 80 74 71 67 67 69 71 62 58 53 54 53 52 47 42 39 35 31 38 40 44 47 50 53 52 49 47 46 47 49 49 48 47
20 337 326 341 344 338 322 311 307 243 141 105 87 89 72 70 67 80 60 63 82 23 94 97 63 83 52 56 86 97 60 78 92 61 70 76 80 90 99 98 92 93 102 88 90 95 83 80 78 80 80 86 85 80 77 70 70 68 74 67 58 50 48 51 50 47 43 41 39 30 37 38 41 45 49 51 53 52 49 46 47 48 50 48 48
354 321 340 339 334 319 319 335 348 351 112 125 95 87 79 80 63 87 68 61 63 61 10 76 81 73 61 64 68 81 96 106 94 81 81 60 64 85 93 91 93 91 101 98 95 97 102 90 85 84 84 84 83 82 84 80 71 70 70 72 59 49 46 50 49 47 45 41 36 32 32 37 39 42 46 49 52 53 52 51 46 44 48 47 47
348 327 357 336 321 328 353 4 15 16 31 84 100 82 100 86 63 79 83 75 62 48 59 67 76 77 79 72 73 84 91 88 97 105 101 104 94 79 80 89 83 76 91 96 87 92 90 86 87 90 92 88 81 83 87 83 76 70 68 69 63 53 44 47 54 50 47 39 38 36 29 33 38 38 41 46 49 52 53 51 50 47 47 45 42
13 331 348 331 346 358 358 19 23 26 53 68 93 90 78 89 62 61 88 85 78 54 62 63 78 81 85 94 84 82 93 93 99 97 99 93 91 86 75 78 78 71 75 94 92 84 90 94 92 93 95 92 90 83 80 84 76 70 68 68 62 54 41 47 53 52 49 44 38 36 35 30 32 37 37 41 46 47 48 48 49 48 47 47 44
212 349 358 5 10 1 19 17 31 32 43 64 83 88 69 88 88 67 68 75 80 76 74 55 68 72 78 84 93 90 64 91 87 87 92 91 91 90 83 78 79 81 79 88 97 99 95 97 96 100 98 95 93 87 83 77 78 70 68 64 63 54 45 51 52 51 48 44 40 38 38 34 32 31 33 35 40 44 46 46 45 46 46 45 45
307 24 33 24 12 22 28 29 32 46 50 68 63 81 68 77 81 83 57 70 76 72 77 67 55 55 61 76 83 73 80 61 93 88 87 93 87 85 90 83 82 74 74 81 88 88 93 89 93 96 89 94 95 94 91 83 78 76 69 65 62 53 51 56 51 51 49 47 41 43 37 38 36 35 29 29 33 41 42 44 45 45 45 44 42
113 92 71 52 55 39 24 46 54 66 60 66 66 68 67 73 86 72 60 60 64 65 61 67 69 63 59 66 74 78 76 79 84 102 93 95 93 89 80 87 96 91 95 96 105 96 103 104 112 101 96 93 93 90 90 89 85 75 68 66 60 53 52 57 54 49 46 43 46 42 38 39 36 38 32 33 23 31 39 41 43 43 43 43 41
144 125 115 92 73 54 54 58 62 71 57 72 64 69 73 58 78 78 76 65 63 49 40 59 69 69 67 70 77 83 84 83 87 100 98 88 91 91 91 96 95 96 99 97 98 104 105 100 92 114 111 103 98 90 89 89 82 79 71 62 53 50 56 49 49 49 38 47 46 42 39 38 38 38 36 34 34 25 36 40 41 41 41 40 40
141 154 135 109 93 86 67 68 70 86 77 79 79 75 75 72 63 74 73 70 69 53 45 61 75 77 71 76 79 82 80 81 89 92 100 104 102 102 110 111 112 106 103 99 97 110 114 104 83 80 108 113 102 101 88 86 84 79 70 63 45 52 51 46 46 45 39 51 44 41 41 37 39 38 37 37 35 31 31 38 40 39 39 39 38
153 146 142 130 122 109 101 92 82 73 95 94 92 94 84 77 70 67 69 69 69 69 51 54 63 82 82 74 73 82 81 83 86 95 98 100 104 110 113 117 119 112 106 100 100 98 91 105 98 66 89 106 104 103 99 91 86 78 66 59 49 54 48 48 48 46 49 47 44 43 39 40 40 39 38 38 36 33 33 32 35 34 33 36 36
153 141 138 130 120 117 114 110 104 94 94 99 97 89 93 82 74 74 71 66 63 56 55 60 55 68 78 80 77 83 84 85 92 99 109 111 108 104 104 107 110 113 111 108 102 97 93 95 105 93 63 68 103 102 109 103 88 79 71 53 55 53 50 52 51 52 48 46 45 37 43 35 41 38 38 38 34 36 35 33 32 32 26 32 33
152 144 143 138 133 126 122 121 119 115 98 82 109 103 93 100 105 96 75 52 46 69 48 27 28 65 67 74 68 73 79 81 84 94 103 106 106 104 102 95 104 111 111 111 115 116 119 111 107 111 102 82 66 93 104 105 87 77 74 58 48 52 50 49 50 46 45 41 36 35 40 34 40 36 38 35 39 36 37 36 37 33 32 30 32
160 154 157 155 153 149 139 133 139 138 135 132 126 127 122 112 80 60 84 71 76 74 61 33 45 55 58 64 60 58 68 78 72 85 93 99 96 100 99 87 93 105 108 110 118 118 114 114 111 100 115 112 78 54 73 84 110 76 61 63 52 33 52 53 50 42 38 33 33 44 31 40 34 36 27 35 39 36 35 34 34 34 31 28 25
178 167 167 169 155 153 147 142 150 148 146 136 131 103 48 61 119 113 101 84 74 63 68 43 30 58 54 57 56 53 57 63 67 79 88 95 103 98 97 101 99 99 94 98 100 104 114 117 119 91 24 105 105 355 337 60 44 136 131 76 30 360 53 52 52 35 33 31 37 45 37 42 36 30 26 37 38 36 35 36 38 38 34 32 28
172 175 167 161 160 158 153 154 153 140 119 111 109 100 103 92 101 107 95 95 64 73 80 73 56 64 55 53 56 51 59 63 59 69 87 88 98 101 98 101 103 120 113 103 108 109 115 126 134 127 111 54 93 42 27 21 141 118 110 93 84 57 352 3 352 31 16 26 34 41 37 40 36 32 30 40 36 33 34 35 42 40 37 34 29
172 168 171 166 166 163 160 152 141 123 109 103 102 86 91 91 86 88 77 78 109 92 86 70 66 66 62 59 36 38 27 54 64 78 88 83 96 106 102 93 89 81 118 121 115 113 110 108 112 120 127 117 64 46 26 19 120 132 99 96 180 115 73 16 2 310 354 18 34 37 33 35 32 31 36 39 31 33 35 39 44 44 41 38 33
179 177 173 171 167 168 159 147 134 129 115 116 119 122 114 99 99 91 96 99 81 82 82 63 59 81 77 37 32 27 49 69 68 73 87 96 89 94 99 95 95 84 96 108 110 116 110 112 124 130 126 138 127 120 30 28 58 20 143 115 61 79 194 177 115 9 15 4 8 28 31 28 27 31 38 34 35 38 41 44 45 45 43 39 34
185 184 174 166 157 155 147 141 127 128 132 131 138 142 143 138 135 124 121 114 114 116 118 131 120 81 74 90 56 46 61 71 66 73 80 91 93 92 100 105 101 96 98 106 114 104 90 91 71 120 99 67 129 114 89 39 68 55 55 97 142 171 165 214 105 192 327 148 324 12 41 26 36 38 40 37 33 32 35 49 46 45 42 38 33
188 168 157 156 155 150 146 143 143 141 140 146 151 148 144 154 146 142 147 151 138 90 79 68 97 85 85 75 72 54 51 79 73 80 88 94 99 98 102 101 101 103 103 102 95 97 93 86 81 88 99 123 124 109 126 147 88 45 40 71 72 55 98 130 181 104 89 319 29 7 353 16 24 48 41 34 30 41 33 53 49 53 46 41 34
163 156 160 155 154 153 147 143 139 143 146 150 155 163 153 153 129 114 103 109 125 136 134 112 80 97 91 79 78 67 58 65 87 80 87 96 103 99 98 100 97 87 94 90 101 106 97 74 78 88 78 61 97 127 142 155 119 70 27 62 59 58 53 61 74 144 141 134 318 334 290 4 11 26 59 47 33 37 49 51 56 51 52 39 34
159 163 166 161 155 151 143 134 136 144 152 156 155 161 158 141 131 124 104 70 91 104 111 101 106 107 99 83 82 78 72 62 64 85 78 86 90 101 98 95 94 91 93 94 86 83 88 95 80 75 82 63 62 98 104 107 108 139 124 57 62 58 56 61 61 56 114 111 274 344 313 335 7 352 13 28 37 41 59 70 66 59 52 40 32
160 157 154 149 149 148 147 149 152 159 158 158 153 145 138 132 134 129 121 118 117 107 107 119 119 118 110 104 98 93 88 80 65 64 77 74 89 91 92 93 98 102 96 103 101 88 84 83 82 92 95 91 65 80 94 100 90 82 82 123 90 49 43 27 25 55 44 77 141 208 263 312 326 301 350 9 357 20 60 71 66 58 48 43 30
160 159 154 155 155 154 156 162 162 155 159 160 153 152 139 143 144 151 141 138 141 137 129 116 123 120 127 127 122 111 89 90 81 68 71 83 84 83 95 98 99 105 100 92 89 96 91 91 91 84 75 85 83 87 82 70 80 71 57 79 118 138 164 147 184 106 129 113 62 285 287 227 229 306 290 335 350 31 73 62 63 58 53 40 36